Location: Unspecified
(49.2170°N, 0.0000°E)
Time: 15:41:10
(UTC+00:00)

Vanguard 1 - Pass Details

Date: 20 June 2021
Orbit: 651 x 3832 km, 34.2° (Epoch: 23 July)

Event Time Altitude Azimuth Distance (km) Brightness Sun altitude
Rises 02:36:13 0° 274° (W) 7,092 14.1 -9.6°
Reaches altitude 10° 02:42:47 10° 263° (W) 5,516 13.5 -9.0°
Maximum altitude 02:53:15 23° 220° (SW) 3,448 12.2 -7.9°
Drops below altitude 10° 03:00:18 10° 171° (S) 3,563 12.5 -7.2°
Sets 03:03:26 0° 157° (SSE) 4,155 13.0 -6.8°
